This demonstration page uses our WeatherBlox Daily Observations layout. Learn more.

Left ArrowRight Arrow

41.86663, -103.66717

Hourly Observations for July 29, 2021

Temp ( °F °C ) Dew Point ( °F °C ) Humidity (%) Winds ( mph kmh ) Pressure ( in mb ) Visibility ( mi km ) Precip ( " mm )
12:53 am 00:53 Clear 80 26.7 60 15.6 51 51 NE 21 33 29.93 1014 10 16 N/A
1:53 am 01:53 Clear 77 25 64 17.8 64 64 NE 17 28 29.94 1014 10 16 N/A
2:53 am 02:53 Clear 74 23.3 66 18.9 76 76 NE 17 28 29.94 1014 10 16 N/A
3:53 am 03:53 Clear 73 22.8 66 18.9 79 79 NE 16 26 29.95 1014 9 14 N/A
4:53 am 04:53 Clear 72 22.2 65 18.3 79 79 NE 16 26 29.98 1015 9 14 N/A
5:53 am 05:53 Sunny 71 21.7 64 17.8 79 79 NE 18 30 30.00 1016 8 13 N/A
6:45 am 06:45 Mostly Cloudy 71 21.7 64 17.8 79 79 NE 21 33 29.99 1015 8 13 N/A
6:53 am 06:53 Mostly Cloudy 71 21.7 64 17.8 79 79 NE 16 26 30.04 1017 8 13 N/A
7:53 am 07:53 Cloudy 72 22.2 65 18.3 79 79 NNE 16 26 30.09 1019 8 13 N/A
8:53 am 08:53 Cloudy 73 22.8 64 17.8 74 74 NE 15 24 30.10 1019 9 14 N/A
9:53 am 09:53 Cloudy 74 23.3 64 17.8 71 71 NNE 15 24 30.11 1020 10 16 N/A
10:53 am 10:53 Cloudy 72 22.2 63 17.2 73 73 ENE 13 20 30.14 1021 10 16 N/A
11:53 am 11:53 Cloudy 75 23.9 63 17.2 66 66 NE 10 17 30.11 1020 10 16 N/A
12:24 pm 12:24 Cloudy 75 24 64 18 69 69 ENE 6 9 30.01 1016 10 16 N/A
12:53 pm 12:53 Mostly Cloudy 78 25.6 64 17.8 62 62 E 6 9 30.10 1019 10 16 N/A
1:13 pm 13:13 Mostly Cloudy 79 26.1 64 17.8 60 60 VRB 6 9 29.97 1015 10 16 N/A
1:50 pm 13:50 Cloudy 81 27 64 18 58 58 VRB 5 7 29.94 1014 10 16 N/A
1:53 pm 13:53 Cloudy 81 27.2 65 18.3 58 58 VRB 5 7 30.08 1019 10 16 N/A
2:39 pm 14:39 Mostly Sunny 83 28.3 65 18.3 55 55 E 8 13 29.91 1013 10 16 N/A
2:53 pm 14:53 Partly Cloudy 82 27.8 65 18.3 56 56 ESE 7 11 30.05 1018 10 16 N/A
3:53 pm 15:53 Sunny 85 29.4 65 18.3 51 51 ESE 12 19 30.03 1017 10 16 N/A
4:53 pm 16:53 Sunny 89 31.7 64 17.8 43 43 E 14 22 30.00 1016 10 16 N/A
5:53 pm 17:53 Sunny 89 31.7 65 18.3 45 45 ENE 16 26 29.96 1015 10 16 N/A
6:53 pm 18:53 Sunny 87 30.6 64 17.8 46 46 E 15 24 29.96 1014 10 16 N/A
7:53 pm 19:53 Sunny 81 27.2 63 17.2 54 54 E 15 24 29.97 1015 10 16 N/A
8:53 pm 20:53 Clear 77 25 61 16.1 58 58 E 16 26 29.99 1016 10 16 N/A
9:53 pm 21:53 Clear 76 24.4 61 16.1 60 60 E 15 24 30.00 1016 10 16 N/A
10:53 pm 22:53 Clear 74 23.3 61 16.1 64 64 E 14 22 30.01 1016 10 16 N/A
11:53 pm 23:53 Clear 72 22.2 63 17.2 73 73 E 12 19 29.98 1015 10 16 N/A

Powered by AerisWeather